Regional Weather Roundup
Issued by NWS Sioux Falls, SD

Home | Current Version | Previous Version | Text Only | Print | Product List | Glossary On
Versions: 1 2 3 4 5 6 7 8 9 10 11 12 13 14 15 16 17 18 19 20 21 22 23 24 25 26 27 28 29 30 31 32 33 34 35 36 37 38 39 40 41 42 43 44 45 46 47 48 49 50
000
ASUS43 KFSD 222210
RWRFSD

WEATHER ROUNDUP FOR SE SOUTH DAKOTA/SW MINNESOTA/NW IOWA
NATIONAL WEATHER SERVICE SIOUX FALLS SD
400 PM CST MON JAN 22 2018

NOTE: "FAIR" INDICATES FEW OR NO CLOUDS BELOW 12,000 FEET WITH NO
SIGNIFICANT WEATHER AND OR OBSTRUCTIONS TO VISIBILITY.


SDZ038>040-050-052>070-222300-
SOUTHEAST SOUTH DAKOTA

CITY           SKY/WX    TMP DP  RH WIND       PRES   REMARKS
BROOKINGS      CLOUDY    26  23  88 N26G32    29.81R WCI  10
CHAMBERLAIN    CLOUDY    27  26  94 NW18      29.93R WCI  14
HURON          CLOUDY    25  22  88 N23G33    29.92R WCI  10
MADISON        CLOUDY    25  25 100 N28       29.81R WCI   8
MITCHELL       CLOUDY    25  23  92 N23       29.90R WCI  10
SIOUX FALLS    FLURRIES  28  25  88 N30G39    29.77R WCI  12
WINNER         MIX PCPN  27  23  85 N14       29.95R FOG     WCI  16
YANKTON        MIX PCPN  27  25  93 MISG      29.80R FOG
$$

MNZ071-072-080-081-089-090-097-098-222300-
SOUTHWEST MINNESOTA

CITY           SKY/WX    TMP DP  RH WIND       PRES   REMARKS
FAIRMONT       SNOW      28  27  96 N28       29.61R VSB 1/2 WCI  13
JACKSON        CLOUDY    28  27  93 N23G36    29.63R VSB 3/4 WCI  14
LUVERNE        CLOUDY    28  25  86 N23G35    29.72R WCI  14
MARSHALL       CLOUDY    29  25  85 N21G30    29.79R WCI  16
MONTEVIDEO     CLOUDY    30  25  80 NE20G25   29.83R WCI  18
PIPESTONE      CLOUDY    27  25  93 N22G33    29.75R WCI  12
REDWOOD FALLS  LGT SNOW  28  26  92 N16G30    29.76R VSB 1   WCI  16
TRACY          LGT SNOW  29  26  90 N26       29.75R WCI  14
WINDOM         SNOW      27  14  59 N32G39    29.66R VSB 1/2 WCI  10
WORTHINGTON    HVY SNOW  26  25  96 N37G45    29.65R VSB 1/4 WCI   8
$$

IAZ001>003-012>014-020>022-031-032-NEZ013-014-SDZ071-222300-
NORTHWEST IOWA

CITY           SKY/WX    TMP DP  RH WIND       PRES   REMARKS
CHEROKEE       LGT SNOW  29  28  96 N26G37    29.62R VSB 3/4 WCI  15
DENISON        LGT RAIN  30  30 100 N29G39    29.55R WCI  15
ESTHERVILLE    FOG       27  27 100 N28G40    29.60R VSB 1/2 WCI  11
LE MARS        MIX PCPN  28  28 100 N20G32    29.68R VSB 1/2 WCI  15
ORANGE CITY    CLOUDY    28  28 100 N21G30    29.66R WCI  15
SHELDON        FOG       27  27 100 N32G47    29.64R VSB 1/4 WCI  10
SIOUX CITY     LGT SNOW  29  28  96 N28G37    29.68R VSB 1   WCI  14
SPENCER        FOG       29  27  92 N26G38    29.61R VSB 1/2 WCI  14
STORM LAKE     SNOW      28  28 100 N33G43    29.55R VSB 1/4 WCI  12
$$

ABBREVIATIONS USED IN REMARKS
   TC - TEMPERATURE IN CELSIUS
  WCI - WIND CHILL INDEX
   HX - HEAT INDEX
  VSB - VISIBILITY





USA.gov is the U.S. government's official web portal to all federal, state and local government web resources and services.